Copper Harbor, MI

10:19 PM EDT on August 23, 2016 (GMT -0400)
Copper Harbor

Weather History for KP59 - August, 2013

Change the Weather History Date:

Friday, August 16, 2013

  Actual Average Record
Temperature  
Mean Temperature 66 °F -  
Max Temperature 71 °F 68 °F 87 °F (2015)
Min Temperature 62 °F 51 °F 6 °F (1996)
Cooling Degree Days 2    
Growing Degree Days 16 (Base 50)    
Moisture  
Dew Point 55 °F    
Average Humidity 68    
Maximum Humidity 84    
Minimum Humidity 50    
Precipitation  
Precipitation 0.00 in - - ()
Sea Level Pressure  
Sea Level Pressure 30.10 in    
Wind  
Wind Speed 6 mph (NW)    
Max Wind Speed 15 mph    
Max Gust Speed -    
Averages and records for this station are not official NWS values.
T = Trace of Precipitation, MM = Missing Value Source: NWS Daily Summary

Daily Weather History Graph

Daily Weather History Graph

Search for Another Location

Airport or City:

Trip Planner

Search our weather history database for the weather conditions in past years. The results will help you decide how hot, cold, wet, or windy it might be!

Date:

Astronomy

Aug. 16, 2013 Rise Set
Actual Time 6:49 AM EDT 9:01 PM EDT
Civil Twilight 6:15 AM EDT 9:34 PM EDT
Nautical Twilight 5:33 AM EDT 10:16 PM EDT
Astronomical Twilight 4:46 AM EDT 11:02 PM EDT
Moon 5:28 PM EDT (8/16) 1:43 AM EDT (8/16)
Length of Visible Light 15h 19m
Length of Day
14h 11m
Waxing Gibbous, 74% of the Moon is Illuminated
Aug 16
Waxing Gibbous
Aug 20
Full
Aug 28
Last Quarter
Sep 5
New
Sep 12
First Quarter

Hourly Weather History & Observations

Time (EDT) Temp. Dew Point Humidity Pressure Visibility Wind Dir Wind Speed Gust Speed Precip Events Conditions
12:51 AM 66.0 °F 46.9 °F 50% 30.05 in - WSW 3.5 mph - N/A   Unknown
1:51 AM 66.9 °F 48.0 °F 51% 30.05 in - NNW 8.1 mph - N/A   Unknown
2:51 AM 66.9 °F 50.0 °F 54% 30.04 in - Variable 6.9 mph - N/A   Unknown
3:51 AM 68.0 °F 50.0 °F 52% 30.04 in - Variable 3.5 mph - N/A   Unknown
4:51 AM 64.9 °F 52.0 °F 63% 30.06 in - Variable 3.5 mph - N/A   Unknown
5:51 AM 64.9 °F 51.1 °F 61% 30.06 in - West 3.5 mph - N/A   Unknown
6:51 AM 64.9 °F 51.1 °F 61% 30.07 in - WNW 4.6 mph - N/A   Unknown
7:51 AM 66.0 °F 52.0 °F 60% 30.09 in - Calm Calm - N/A   Unknown
8:51 AM 68.0 °F 55.0 °F 63% 30.10 in - Calm Calm - N/A   Unknown
9:51 AM 66.9 °F 57.0 °F 70% 30.11 in - North 10.4 mph - N/A   Unknown
10:51 AM 68.0 °F 59.0 °F 73% 30.12 in - North 11.5 mph - N/A   Unknown
11:51 AM 69.1 °F 60.1 °F 73% 30.12 in - North 12.7 mph - N/A   Unknown
12:51 PM 69.1 °F 60.1 °F 73% 30.12 in - North 15.0 mph - N/A   Unknown
1:51 PM 70.0 °F 61.0 °F 73% 30.11 in - North 13.8 mph - N/A   Unknown
2:51 PM 70.0 °F 61.0 °F 73% 30.11 in - North 13.8 mph - N/A   Unknown
3:51 PM 66.0 °F 59.0 °F 78% 30.11 in - NNW 8.1 mph - N/A   Unknown
4:51 PM 64.0 °F 57.9 °F 80% 30.12 in - Calm Calm - N/A   Unknown
5:51 PM 64.9 °F 60.1 °F 84% 30.12 in - NNE 3.5 mph - N/A   Unknown
6:51 PM 66.0 °F 57.9 °F 75% 30.12 in - Calm Calm - N/A   Unknown
7:51 PM 68.0 °F 57.9 °F 70% 30.11 in - Calm Calm - N/A   Unknown
8:51 PM 64.0 °F 54.0 °F 70% 30.11 in - WSW 6.9 mph - N/A   Unknown
9:51 PM 63.0 °F 54.0 °F 72% 30.11 in - WSW 6.9 mph - N/A   Unknown
10:51 PM 63.0 °F 53.1 °F 70% 30.12 in - WSW 8.1 mph - N/A   Unknown
11:51 PM 62.1 °F 54.0 °F 75% 30.12 in - WSW 8.1 mph - N/A   Unknown